UWE-4

Last updated on Mon Sep 15 2025 00:03:09 GMT+0000 (Coordinated Universal Time)

1 43880U 18111E 25256.72753942 .00015123 00000+0 54192-3 0 9999 2 43880 97.5813 171.1924 0009253 221.4896 138.5642 15.28797909368300
UTC large
Height (km)
Speed (km/s)
/
Latitude / Longitude
Inclination (degrees)
Orbital Period (minutes)
Azimuth
Elevation
Range (km)
Doppler Factor

Next 0 passes for location: London (51.5072 / 0.1276)

Sorry there are no passes over London.